User: anonymous   Login
Location: Montreal
(45.5000°N, 73.5800°W)
Time: 13:07:55
(UTC-04:00)
Language:

ISS - Orbit

View from above orbital plane
View from above orbital plane
View from above satellite
View from above satellite

Ground track
Ground track

The orbit data is extracted from the following two-line orbital elements,

1 25544U 98067A   24109.41781315  .00027290  00000-0  47792-3 0  9998
2 25544  51.6383 251.7688 0005046  73.5951  24.7412 15.50379259449272
Epoch (UTC): 18 April 2024 10:01:39
Eccentricity: 0.0005046
inclination: 51.6383°
perigee height: 412 km
apogee height: 419 km
right ascension of ascending node: 251.7688°
argument of perigee: 73.5951°
revolutions per day: 15.50379259
mean anomaly at epoch: 24.7412°
orbit number at epoch: 44927

The dashed part of the orbit path shows where the satellite is in the earth's shadow,  

DLR